CW3322 Weather Reports


Display with metric or nautical units.
time (UTC)temp
F
wind
direction
speed
MPH
gust
MPH
rain 1hr
in
rain 24hr
in
rain mn
in
humidity
%
barometer
mb
20260510132023 76 11 0.0 1.0 0.00 0.00 0.00 48 1009.1
20260510130020 76 0.0 0.0 0.00 0.00 0.00 49 1009.5
20260510115055 76 25 2.0 3.0 0.00 0.00 0.00 51 1010.5
20260510112516 75 19 1.0 5.0 0.00 0.00 0.00 52 1010.4
20260510110525 75 89 3.0 5.0 0.00 0.00 0.00 51 1010.5
20260510104518 75 3 1.0 2.0 0.00 0.00 0.00 53 1010.5
20260510104245 75 12 1.0 3.0 0.00 0.00 0.00 51 1010.5
20260510101526 74 355 0.0 1.0 0.00 0.00 0.00 54 1011.5
20260510093027 72 28 1.0 3.0 0.00 0.00 0.00 56 1011.5
20260510090518 70 54 2.0 5.0 0.00 0.00 0.00 58 1011.5
20260510084020 69 28 1.0 5.0 0.00 0.00 0.00 62 1011.4
20260510083526 69 14 0.0 2.0 0.00 0.00 0.00 62 1011.4
20260510083334 67 0.0 0.0 0.00 0.00 0.00 65 1012.4
20260510082525 67 0.0 0.0 0.00 0.00 0.00 65 1012.4
20260510082017 66 356 0.0 1.0 0.00 0.00 0.00 66 1012.4
20260510081536 66 3 0.0 1.0 0.00 0.00 0.00 66 1011.5
20260510081029 66 0.0 0.0 0.00 0.00 0.00 67 1011.3
20260510080552 66 8 0.0 1.0 0.00 0.00 0.00 67 1011.3
20260510080026 65 4 0.0 1.0 0.00 0.00 0.00 67 1012.2
20260510075519 65 0.0 0.0 0.00 0.00 0.00 68 1012.4
20260510075031 63 0.0 0.0 0.00 0.00 0.00 70 1012.3
20260510074517 63 0.0 0.0 0.00 0.00 0.00 71 1012.3
20260510074041 62 24 0.0 2.0 0.00 0.00 0.00 71 1012.3
20260510073557 62 0.0 0.0 0.00 0.00 0.00 71 1012.3
20260510073353 62 350 0.0 0.0 0.00 0.00 0.00 72 1012.3
20260510072525 62 0.0 0.0 0.00 0.00 0.00 73 1012.3
20260510072453 61 0.0 0.0 0.00 0.00 0.00 74 1012.3
20260510071522 61 359 0.0 2.0 0.00 0.00 0.00 74 1012.3
20260510071027 61 0.0 0.0 0.00 0.00 0.00 75 1012.3
20260510070931 60 0.0 0.0 0.00 0.00 0.00 77 1012.3
20260510070024 59 0.0 0.0 0.00 0.00 0.00 78 1012.3
20260510065514 59 0.0 0.0 0.00 0.00 0.00 78 1012.3
20260510064546 59 0.0 0.0 0.00 0.00 0.00 78 1012.3
20260510064048 59 0.0 0.0 0.00 0.00 0.00 80 1012.4
20260510063523 58 0.0 0.0 0.00 0.00 0.00 84 1012.4
20260510063015 57 0.0 0.0 0.00 0.00 0.00 87 1012.4
20260510062520 57 0.0 0.0 0.00 0.00 0.00 88 1012.4
20260510062024 57 0.0 0.0 0.00 0.00 0.00 87 1012.4
20260510061516 56 0.0 0.0 0.00 0.00 0.00 89 1012.6
20260510061034 55 0.0 0.0 0.00 0.00 0.00 92 1013.4
20260510060526 53 0.0 0.0 0.00 0.00 0.00 93 1013.3
20260510060017 52 0.0 0.0 0.00 0.00 0.00 95 1013.3
20260510055521 52 0.0 0.0 0.00 0.00 0.00 96 1013.3
20260510055026 51 0.0 0.0 0.00 0.00 0.00 95 1013.3
20260510054518 51 0.0 0.0 0.00 0.00 0.00 96 1013.3
20260510054052 51 0.0 0.0 0.00 0.00 0.00 96 1013.3
20260510053527 51 0.0 0.0 0.00 0.00 0.00 97 1013.3
20260510053019 50 0.0 0.0 0.00 0.00 0.00 97 1013.3
20260510052523 50 0.0 0.0 0.00 0.00 0.00 98 1013.3
20260510052015 49 0.0 0.0 0.00 0.00 0.00 99 1013.3
20260510051520 49 0.0 0.0 0.00 0.00 0.00 99 1013.2
20260510051024 48 0.0 0.0 0.00 0.00 0.00 99 1013.2
20260510050516 48 0.0 0.0 0.00 0.00 0.00 99 1013.2
20260510050020 48 0.0 0.0 0.00 0.00 0.00 99 1013.2
20260510045655 48 0.0 0.0 0.00 0.00 0.00 99 1013.2
20260510045017 47 0.0 0.0 0.00 0.00 0.00 99 1013.2
20260510044522 47 0.0 0.0 0.00 0.00 0.00 99 1013.2
20260510044027 47 0.0 0.0 0.00 0.00 0.00 99 1013.3
20260510043519 47 0.0 0.0 0.00 0.00 0.00 99 1013.3
20260510043023 47 0.0 0.0 0.00 0.00 0.00 99 1013.3
20260510042516 47 0.0 0.0 0.00 0.00 0.00 99 1012.5
20260510042021 47 0.0 0.0 0.00 0.00 0.00 99 1012.3
20260510041802 47 0.0 0.0 0.00 0.00 0.00 98 1012.3
20260510041018 47 0.0 0.0 0.00 0.00 0.00 97 1012.3
20260510040924 47 0.0 0.0 0.00 0.00 0.00 97 1013.3
20260510040026 47 0.0 0.0 0.00 0.00 0.00 98 1013.3
20260510035518 48 0.0 0.0 0.00 0.00 0.00 97 1013.3
20260510035023 48 0.0 0.0 0.00 0.00 0.00 97 1013.3
20260510034527 48 0.0 0.0 0.00 0.00 0.00 98 1013.3
20260510034019 48 0.0 0.0 0.00 0.00 0.00 97 1013.3
20260510033523 48 0.0 0.0 0.00 0.00 0.00 96 1013.3
20260510033015 48 0.0 0.0 0.00 0.00 0.00 97 1013.3
20260510032520 48 0.0 0.0 0.00 0.00 0.00 97 1013.3
20260510032025 48 0.0 0.0 0.00 0.00 0.00 97 1013.3
20260510031517 48 0.0 0.0 0.00 0.00 0.00 95 1013.3
20260510031021 49 0.0 0.0 0.00 0.00 0.00 95 1013.3
20260510030556 49 0.0 0.0 0.00 0.00 0.00 95 1013.3
20260510030018 49 0.0 0.0 0.00 0.00 0.00 95 1013.3
20260510025523 49 0.0 0.0 0.00 0.00 0.00 95 1013.3
20260510025027 49 0.0 0.0 0.00 0.00 0.00 95 1013.3
20260510024519 49 0.0 0.0 0.00 0.00 0.00 94 1013.3
20260510024024 50 0.0 0.0 0.00 0.00 0.00 93 1013.4
20260510023516 50 0.0 0.0 0.00 0.00 0.00 92 1013.4
20260510023020 50 0.0 0.0 0.00 0.00 0.00 92 1013.4
20260510022525 50 0.0 0.0 0.00 0.00 0.00 92 1013.4
20260510022017 50 0.0 0.0 0.00 0.00 0.00 91 1013.4
20260510021552 51 0.0 0.0 0.00 0.00 0.00 92 1013.4
20260510021026 51 0.0 0.0 0.00 0.00 0.00 90 1013.4
20260510020518 51 0.0 0.0 0.00 0.00 0.00 89 1013.4
20260510020023 52 0.0 0.0 0.00 0.00 0.00 89 1013.5
20260510015615 52 0.0 0.0 0.00 0.00 0.00 89 1013.5
20260510015019 52 0.0 0.0 0.00 0.00 0.00 89 1013.5
20260510014623 53 0.0 0.0 0.00 0.00 0.00 88 1013.5
20260510014015 53 0.0 0.0 0.00 0.00 0.00 87 1013.5
20260510013533 53 0.0 0.0 0.00 0.00 0.00 86 1014.4
20260510013055 54 0.0 0.0 0.00 0.00 0.00 85 1014.5
20260510012547 54 0.0 0.0 0.00 0.00 0.00 85 1014.5
20260510012021 55 329 0.0 0.0 0.00 0.00 0.00 84 1014.5
20260510011525 55 0.0 0.0 0.00 0.00 0.00 82 1014.5
20260510011047 55 0.0 0.0 0.00 0.00 0.00 82 1014.5
20260510010522 55 0.0 0.0 0.00 0.00 0.00 81 1014.5
20260510010026 55 0.0 0.0 0.00 0.00 0.00 80 1014.5
20260510005518 55 343 0.0 1.0 0.00 0.00 0.00 80 1014.5
20260510005023 55 0.0 0.0 0.00 0.00 0.00 80 1014.5
20260510004527 55 0.0 0.0 0.00 0.00 0.00 80 1014.5
20260510004018 55 0.0 0.0 0.00 0.00 0.00 80 1014.5
20260510003523 55 0.0 0.0 0.00 0.00 0.00 82 1014.4
20260510003015 54 0.0 0.0 0.00 0.00 0.00 83 1014.4
20260510002519 54 0.0 0.0 0.00 0.00 0.00 83 1014.4
20260510002355 54 0.0 0.0 0.00 0.00 0.00 84 1014.4
20260510001516 54 0.0 0.0 0.00 0.00 0.00 85 1014.4
20260510001450 54 0.0 0.0 0.00 0.00 0.00 85 1014.4
20260510000525 54 0.0 0.0 0.00 0.00 0.00 86 1014.4
20260510000017 54 0.0 0.0 0.00 0.00 0.00 86 1014.4
20260509235522 54 0.0 0.0 0.00 0.00 0.00 85 1014.4
20260509235026 54 0.0 0.0 0.00 0.00 0.00 85 1014.8
20260509234518 55 0.0 0.0 0.00 0.00 0.00 86 1015.4
20260509234023 54 332 0.0 1.0 0.00 0.00 0.00 85 1015.4
20260509233527 54 335 0.0 2.0 0.00 0.00 0.00 84 1015.4
20260509233019 54 0.0 0.0 0.00 0.00 0.00 85 1015.4
20260509232523 54 0.0 0.0 0.00 0.00 0.00 84 1015.4
20260509232016 54 0.0 0.0 0.00 0.00 0.00 84 1015.2
20260509231550 55 0.0 0.0 0.00 0.00 0.00 85 1014.4
20260509231025 55 0.0 0.0 0.00 0.00 0.00 84 1014.4
20260509230517 55 0.0 0.0 0.00 0.00 0.00 84 1014.4
20260509230021 55 0.0 0.0 0.00 0.00 0.00 84 1014.4
20260509225526 55 0.0 0.0 0.00 0.00 0.00 82 1014.4
20260509225018 55 0.0 0.0 0.00 0.00 0.00 82 1014.9
20260509224522 56 0.0 0.0 0.00 0.00 0.00 81 1015.4
20260509224027 56 0.0 0.0 0.00 0.00 0.00 82 1015.4
20260509223549 56 0.0 0.0 0.00 0.00 0.00 81 1015.4
20260509223023 56 0.0 0.0 0.00 0.00 0.00 80 1015.4
20260509222515 56 0.0 0.0 0.00 0.00 0.00 79 1015.4
20260509222020 56 0.0 0.0 0.00 0.00 0.00 80 1015.4
20260509221524 56 0.0 0.0 0.00 0.00 0.00 80 1015.4
20260509221016 56 0.0 0.0 0.00 0.00 0.00 80 1015.4
20260509220521 56 0.0 0.0 0.00 0.00 0.00 80 1015.4
20260509220026 57 0.0 0.0 0.00 0.00 0.00 80 1015.4
20260509215517 57 0.0 0.0 0.00 0.00 0.00 79 1015.4
20260509215022 57 0.0 0.0 0.00 0.00 0.00 78 1015.4
20260509214526 58 0.0 0.0 0.00 0.00 0.00 78 1015.4
20260509214019 58 0.0 0.0 0.00 0.00 0.00 77 1015.4
20260509213523 58 0.0 0.0 0.00 0.00 0.00 75 1015.4
20260509213115 59 0.0 0.0 0.00 0.00 0.00 74 1015.4
20260509212520 59 0.0 0.0 0.00 0.00 0.00 74 1015.4
20260509212025 59 0.0 0.0 0.00 0.00 0.00 73 1015.4
20260509211547 59 346 0.0 0.0 0.00 0.00 0.00 73 1015.4
20260509211051 59 0.0 0.0 0.00 0.00 0.00 74 1015.4
20260509210526 59 0.0 0.0 0.00 0.00 0.00 74 1015.4
20260509210148 59 0.0 0.0 0.00 0.00 0.00 73 1015.4
20260509205536 59 0.0 0.0 0.00 0.00 0.00 73 1015.4
20260509205058 60 0.0 0.0 0.00 0.00 0.00 73 1015.4
20260509204521 60 0.0 0.0 0.00 0.00 0.00 73 1015.4
20260509204054 60 0.0 0.0 0.00 0.00 0.00 73 1015.4
20260509203517 60 0.0 0.0 0.00 0.00 0.00 73 1015.3
20260509203021 60 0.0 0.0 0.00 0.00 0.00 73 1015.3
20260509202526 59 0.0 0.0 0.00 0.00 0.00 74 1015.3
20260509202018 59 0.0 0.0 0.00 0.00 0.00 74 1015.3
20260509201523 59 0.0 0.0 0.00 0.00 0.00 74 1015.3
20260509201015 59 0.0 0.0 0.00 0.00 0.00 75 1015.3
20260509200520 59 0.0 0.0 0.00 0.00 0.00 75 1015.3
20260509200055 59 356 0.0 1.0 0.00 0.00 0.00 76 1015.2
20260509195517 59 0.0 0.0 0.00 0.00 0.00 77 1015.2
20260509195022 59 0.0 0.0 0.00 0.00 0.00 77 1015.2
20260509194556 59 0.0 0.0 0.00 0.00 0.00 77 1015.2
20260509194019 59 0.0 0.0 0.00 0.00 0.00 76 1015.2
20260509193553 60 0.0 0.0 0.00 0.00 0.00 76 1015.3
20260509193016 60 0.0 0.0 0.00 0.00 0.00 76 1014.8
20260509192520 60 0.0 0.0 0.00 0.00 0.00 76 1014.3
20260509192126 60 0.0 0.0 0.00 0.00 0.00 76 1014.3
20260509191518 61 0.0 0.0 0.00 0.00 0.00 76 1014.3
20260509191123 61 0.0 0.0 0.00 0.00 0.00 74 1014.3
20260509190545 61 0.0 0.0 0.00 0.00 0.00 74 1014.2
20260509190020 62 0.0 0.0 0.00 0.00 0.00 74 1014.3
20260509185525 62 0.0 0.0 0.00 0.00 0.00 73 1014.3
20260509185018 63 0.0 0.0 0.00 0.00 0.00 71 1014.3
20260509184522 63 0.0 0.0 0.00 0.00 0.00 70 1014.3
20260509184015 64 0.0 0.0 0.00 0.00 0.00 69 1014.3
20260509183520 64 0.0 0.0 0.00 0.00 0.00 70 1014.3
20260509183025 65 0.0 0.0 0.00 0.00 0.00 69 1014.2
20260509182548 66 0.0 0.0 0.00 0.00 0.00 66 1014.3
20260509182023 67 0.0 0.0 0.00 0.00 0.00 65 1014.3
20260509181515 68 0.0 0.0 0.00 0.00 0.00 63 1014.3
20260509181020 69 0.0 0.0 0.00 0.00 0.00 60 1014.3
20260509180555 69 0.0 0.0 0.00 0.00 0.00 55 1014.2
20260509180017 69 5 0.0 1.0 0.00 0.00 0.00 54 1014.2
20260509175522 70 0.0 0.0 0.00 0.00 0.00 55 1014.2
20260509175015 70 0.0 0.0 0.00 0.00 0.00 54 1014.2
20260509174520 70 348 0.0 0.0 0.00 0.00 0.00 52 1014.2
20260509174056 70 25 0.0 2.0 0.00 0.00 0.00 51 1014.2
20260509173518 70 9 0.0 2.0 0.00 0.00 0.00 51 1014.1
20260509173037 71 356 0.0 1.0 0.00 0.00 0.00 50 1014.1
20260509172529 71 12 1.0 2.0 0.00 0.00 0.00 50 1014.1
20260509172022 71 355 0.0 1.0 0.00 0.00 0.00 50 1014.1
20260509171515 71 2 0.0 2.0 0.00 0.00 0.00 49 1014.1
20260509171019 71 32 1.0 5.0 0.00 0.00 0.00 47 1014.1
20260509170525 72 351 0.0 1.0 0.00 0.00 0.00 47 1014.1
20260509170017 72 0 0.0 1.0 0.00 0.00 0.00 47 1014.1
20260509165622 72 316 0.0 2.0 0.00 0.00 0.00 43 1014.1
20260509165015 73 327 0.0 2.0 0.00 0.00 0.00 43 1014.1
20260509164520 73 357 0.0 2.0 0.00 0.00 0.00 43 1014.1
20260509164025 73 317 1.0 2.0 0.00 0.00 0.00 43 1014.1
20260509163518 74 22 1.0 2.0 0.00 0.00 0.00 42 1014.1
20260509163023 75 26 1.0 3.0 0.00 0.00 0.00 41 1014.2
20260509162516 75 20 0.0 2.0 0.00 0.00 0.00 40 1014.2
20260509162021 76 13 1.0 3.0 0.00 0.00 0.00 40 1014.2
20260509161526 76 356 0.0 2.0 0.00 0.00 0.00 41 1014.2
20260509161019 75 0.0 0.0 0.00 0.00 0.00 43 1014.2
20260509160525 74 3 0.0 2.0 0.00 0.00 0.00 44 1014.1
20260509160018 74 26 0.0 2.0 0.00 0.00 0.00 43 1014.1
20260509155523 73 14 0.0 2.0 0.00 0.00 0.00 43 1014.1
20260509155046 74 3 0.0 2.0 0.00 0.00 0.00 43 1014.1